Oıtal

Kazakhstan     42˚54′22″N   73˚16′08″E
temp.,
°C
wind,
m/s
gust,
m/s
humid.,
%
clouds,
%
prec.,
mm/h
press.,
hPa
HPBL,
m
27 november, fri
fri2700:00−1˚e4466100 0.0 102968
03:00e3466100 0.0 102845
06:00−2˚e126499 0.0 102721
09:00−1˚nw116288 0.0 102621
12:00+2˚e237294 0.0 102580
15:00+5˚ese2269100 0.0 102332
18:00+2˚nw1168100 0.0 102422
21:00+1˚e1268100 0.0 102422
28 november, sat
sat2800:00+1˚wnw2269100 0.0 102322
03:00sse0170100 0.0 102322
06:00+1˚nw2366100 0.0 102529
09:00+2˚sw51296100 1.9 1031477
12:00+2˚nw61774100 3.1 10361553
15:00+2˚e2684100 0.3 1037427
18:00ssw4597100 2.2 1041177
21:00−1˚sw2398100 3.3 104293
29 november, sun
sun2900:00−2˚sw2396100 4.2 104350
03:00−3˚wsw239799 0.4 1043110
06:00−4˚sw229396 0.5 104427
09:00−5˚w129280 0.0 104521
12:00−2˚nnw118764 0.0 1043275
15:00−2˚e118474 0.0 1042403
18:00−4˚e239384 0.1 104360
21:00−6˚e339366 0.0 104339
30 november, mon
mon3000:00−7˚e239346 0.0 104123
03:00−8˚e23940 0.0 104027
06:00−9˚e23929 0.0 104024
09:00−9˚e22890 0.0 103924
12:00−5˚ene23820 0.0 1037219
15:00−4˚ene22800 0.0 1034267
18:00−8˚e228610 0.0 103421
21:00−9˚e228895 0.0 103321
1 december, tue
tue100:00−10˚ne118863 0.0 103221
03:00−10˚ese0188100 0.0 103221
06:00−10˚ne018696 0.0 103221
09:00−9˚ene1290100 0.0 103342
12:00−6˚n1184100 0.0 1032225
15:00−5˚wnw118180 0.0 1031261
18:00−7˚wsw228682 0.0 103321
21:00−6˚wnw1287100 0.0 103421